GW3762 Weather Reports


Display with metric or nautical units.
time (UTC)temp
F
wind
direction
speed
MPH
gust
MPH
rain 1hr
in
rain 24hr
in
rain mn
in
humidity
%
barometer
mb
20260904141459 72 117 1.0 5.0 0.00 0.29 0.29 94 1012.2
20260904140458 71 88 3.0 5.0 0.00 0.29 0.29 95 1012.1
20260904140001 71 5 2.0 3.0 0.00 0.29 0.29 95 1012.1
20260904135500 71 51 0.0 3.0 0.00 0.29 0.29 95 1012.1
20260904134959 71 276 0.0 1.0 0.00 0.29 0.29 96 1012.0
20260904134459 70 276 0.0 1.0 0.00 0.29 0.29 96 1012.0
20260904133959 70 276 0.0 2.0 0.00 0.29 0.29 96 1012.0
20260904133459 70 276 1.0 2.0 0.00 0.29 0.29 96 1012.0
20260904132500 70 275 0.0 2.0 0.00 0.29 0.29 96 1011.9
20260904131959 70 275 1.0 3.0 0.00 0.29 0.29 96 1012.0
20260904131458 69 275 0.0 3.0 0.00 0.29 0.29 96 1012.0
20260904130458 70 275 2.0 3.0 0.00 0.29 0.29 96 1012.1
20260904130002 70 275 2.0 3.0 0.00 0.29 0.29 96 1012.0
20260904125459 70 272 1.0 2.0 0.00 0.29 0.29 96 1011.9
20260904124959 69 272 1.0 2.0 0.00 0.29 0.29 96 1011.9
20260904124500 69 272 1.0 2.0 0.00 0.29 0.29 96 1011.9
20260904123959 69 272 2.0 2.0 0.00 0.29 0.29 96 1011.9
20260904123459 69 272 1.0 2.0 0.00 0.29 0.29 96 1011.9
20260904122959 69 272 1.0 2.0 0.00 0.29 0.29 96 1011.9
20260904121959 69 272 2.0 2.0 0.00 0.29 0.29 96 1011.9
20260904120959 68 272 1.0 2.0 0.00 0.29 0.29 96 1011.9
20260904120459 68 273 2.0 2.0 0.00 0.29 0.29 96 1011.9
20260904120001 68 272 2.0 2.0 0.00 0.29 0.29 96 1011.9
20260904115459 68 272 0.0 0.0 0.00 0.29 0.29 95 1011.9
20260904114959 68 272 0.0 0.0 0.00 0.29 0.29 96 1011.8
20260904114458 68 272 0.0 0.0 0.00 0.29 0.29 95 1011.8
20260904113959 68 273 0.0 1.0 0.00 0.29 0.29 96 1011.6
20260904113459 68 273 0.0 2.0 0.00 0.29 0.29 95 1011.6
20260904112959 68 272 1.0 2.0 0.00 0.29 0.29 95 1011.6
20260904111459 68 272 0.0 2.0 0.00 0.29 0.29 95 1011.4
20260904110959 68 267 1.0 3.0 0.00 0.29 0.29 95 1011.3
20260904105958 68 272 0.0 2.0 0.00 0.29 0.29 95 1011.2
20260904105459 68 272 0.0 3.0 0.00 0.29 0.29 95 1011.3
20260904104459 68 274 0.0 0.0 0.00 0.29 0.29 95 1011.2
20260904103959 68 274 0.0 0.0 0.00 0.29 0.29 95 1011.2
20260904103458 68 274 0.0 0.0 0.00 0.29 0.29 95 1011.1
20260904102959 68 49 0.0 1.0 0.00 0.29 0.29 95 1011.1
20260904102459 68 49 0.0 3.0 0.00 0.29 0.29 95 1011.1
20260904101459 68 53 0.0 2.0 0.00 0.29 0.29 95 1011.0
20260904100958 68 53 0.0 2.0 0.00 0.29 0.29 95 1011.0
20260904100458 68 53 2.0 2.0 0.00 0.29 0.29 95 1011.0
20260904094958 68 44 3.0 3.0 0.00 0.29 0.29 95 1010.8
20260904093958 68 264 0.0 0.0 0.01 0.29 0.29 95 1011.0
20260904093458 68 264 0.0 0.0 0.01 0.29 0.29 95 1011.0
20260904092957 68 264 0.0 2.0 0.01 0.29 0.29 95 1010.9
20260904091958 68 264 1.0 1.0 0.02 0.29 0.29 95 1010.6
20260904091458 68 264 0.0 1.0 0.03 0.29 0.29 95 1010.6
20260904090958 68 264 0.0 2.0 0.11 0.29 0.29 95 1010.7
20260904085958 68 264 1.0 6.0 0.29 0.30 0.29 95 1010.5
20260904084958 68 73 2.0 10.0 0.29 0.30 0.29 94 1009.9
20260904083957 68 246 1.0 3.0 0.28 0.29 0.28 94 1010.4
20260904083458 68 246 0.0 3.0 0.28 0.29 0.28 94 1010.4
20260904082958 69 246 0.0 4.0 0.28 0.29 0.28 94 1010.5
20260904082458 69 260 3.0 4.0 0.27 0.28 0.27 94 1010.5
20260904081958 69 244 0.0 4.0 0.27 0.28 0.27 94 1010.4
20260904081458 70 291 1.0 6.0 0.25 0.26 0.25 94 1010.5
20260904080957 70 246 2.0 6.0 0.18 0.19 0.18 94 1011.1
20260904080001 70 245 5.0 7.0 0.00 0.01 0.00 94 1011.4
20260904075458 71 238 0.0 0.0 0.00 0.01 0.00 94 1010.9
20260904074459 71 238 0.0 0.0 0.00 0.01 0.00 94 1010.7
20260904073958 71 238 0.0 0.0 0.00 0.01 0.00 94 1010.7
20260904073458 71 238 0.0 0.0 0.00 0.01 0.00 94 1010.9
20260904072958 71 238 0.0 0.0 0.00 0.01 0.00 94 1010.9
20260904072459 71 238 0.0 0.0 0.00 0.01 0.00 94 1010.8
20260904071959 71 238 0.0 0.0 0.00 0.01 0.00 94 1010.9
20260904071459 71 238 0.0 0.0 0.00 0.01 0.00 94 1011.0
20260904070958 71 238 0.0 0.0 0.00 0.01 0.00 94 1011.1
20260904065958 71 238 0.0 0.0 0.00 0.10 0.00 94 1011.1
20260904065457 71 238 0.0 0.0 0.00 0.10 0.00 94 1011.1
20260904064958 71 238 0.0 0.0 0.00 0.10 0.00 94 1011.1
20260904064458 71 238 0.0 0.0 0.00 0.10 0.00 94 1011.2
20260904063958 71 238 0.0 0.0 0.00 0.10 0.00 94 1011.3
20260904063457 71 238 0.0 0.0 0.00 0.10 0.00 94 1011.4
20260904062958 71 238 0.0 0.0 0.00 0.10 0.00 94 1011.4
20260904062458 71 238 0.0 0.0 0.00 0.10 0.00 94 1011.4
20260904061958 71 238 0.0 0.0 0.00 0.10 0.00 94 1011.3
20260904061457 71 238 0.0 0.0 0.00 0.10 0.00 94 1011.3
20260904060458 71 238 0.0 0.0 0.00 0.10 0.00 94 1011.4
20260904060000 71 238 0.0 0.0 0.00 0.10 0.00 94 1011.5
20260904055457 71 238 0.0 0.0 0.00 0.43 0.00 94 1011.5
20260904054958 71 238 0.0 0.0 0.00 0.43 0.00 94 1011.5
20260904054457 71 238 0.0 0.0 0.00 0.43 0.00 94 1011.7
20260904053958 71 238 0.0 0.0 0.00 0.43 0.00 94 1011.7
20260904053458 71 238 0.0 0.0 0.00 0.43 0.00 94 1011.7
20260904051958 71 238 0.0 0.0 0.00 0.43 0.00 94 1011.9
20260904051458 71 238 0.0 0.0 0.00 0.43 0.00 94 1012.0
20260904050958 71 238 0.0 0.0 0.00 0.43 0.00 94 1012.0
20260904050457 71 238 0.0 0.0 0.00 0.43 0.00 94 1012.1
20260904050000 71 238 0.0 0.0 0.00 0.43 0.00 94 1012.1
20260904045500 71 238 0.0 0.0 0.00 0.43 0.00 94 1012.1
20260904044959 71 238 0.0 0.0 0.00 0.43 0.00 94 1012.1
20260904044459 71 238 0.0 0.0 0.00 0.43 0.00 94 1012.1
20260904043959 71 238 0.0 0.0 0.00 0.43 0.00 94 1012.1
20260904042959 71 238 0.0 0.0 0.00 0.43 0.00 94 1012.3
20260904042459 71 238 0.0 0.0 0.00 0.43 0.00 94 1012.3
20260904041959 71 238 0.0 0.0 0.00 0.43 0.00 94 1012.4
20260904040959 71 238 0.0 0.0 0.00 0.43 0.00 94 1012.4
20260904040500 72 238 0.0 0.0 0.00 0.43 0.00 94 1012.4
20260904040000 72 238 0.0 0.0 0.00 0.43 0.43 94 1012.4
20260904035500 72 238 0.0 0.0 0.00 0.43 0.43 94 1012.4
20260904034459 72 238 0.0 0.0 0.00 0.43 0.43 94 1012.5
20260904033959 72 238 0.0 0.0 0.00 0.43 0.43 94 1012.4
20260904033500 72 238 0.0 0.0 0.00 0.43 0.43 94 1012.6
20260904032959 72 238 0.0 0.0 0.00 0.43 0.43 94 1012.7
20260904032500 72 238 0.0 0.0 0.00 0.43 0.43 94 1012.8
20260904032000 72 238 0.0 0.0 0.00 0.43 0.43 94 1012.8
20260904031459 72 238 0.0 0.0 0.00 0.43 0.43 94 1012.9
20260904030500 72 238 0.0 0.0 0.00 0.43 0.43 93 1012.9
20260904030003 72 238 0.0 0.0 0.00 0.43 0.43 93 1012.9
20260904025459 72 238 0.0 1.0 0.00 0.43 0.43 93 1013.0
20260904024959 72 238 0.0 2.0 0.00 0.43 0.43 93 1012.8
20260904024459 72 238 1.0 2.0 0.00 0.43 0.43 93 1013.0
20260904023959 72 238 2.0 3.0 0.00 0.43 0.43 93 1013.1
20260904023500 72 238 2.0 3.0 0.00 0.43 0.43 93 1013.1
20260904022959 72 238 2.0 4.0 0.00 0.43 0.43 93 1013.2
20260904022500 72 238 3.0 4.0 0.00 0.43 0.43 92 1013.1
20260904021500 73 219 0.0 2.0 0.00 0.43 0.43 92 1013.0
20260904020959 73 219 0.0 2.0 0.00 0.43 0.43 92 1012.9
20260904020500 73 219 0.0 2.0 0.00 0.43 0.43 92 1013.0
20260904015959 73 219 0.0 2.0 0.00 0.43 0.43 92 1013.1
20260904015000 73 219 1.0 2.0 0.00 0.43 0.43 92 1013.3
20260904014459 73 219 2.0 2.0 0.00 0.43 0.43 92 1013.3
20260904013959 73 219 1.0 3.0 0.00 0.43 0.43 92 1013.5
20260904013459 73 219 2.0 4.0 0.00 0.43 0.43 92 1013.7
20260904012959 73 219 2.0 3.0 0.00 0.43 0.43 92 1013.6
20260904012500 73 219 0.0 0.0 0.00 0.43 0.43 92 1013.6
20260904011000 73 217 0.0 0.0 0.00 0.43 0.43 92 1013.4
20260904010459 73 217 0.0 0.0 0.00 0.43 0.43 92 1013.4
20260904010000 73 95 0.0 0.0 0.00 0.43 0.43 92 1013.3
20260904005500 73 95 0.0 0.0 0.00 0.43 0.43 93 1013.3
20260904004500 73 68 0.0 0.0 0.00 0.43 0.43 93 1013.4
20260904004000 73 68 0.0 0.0 0.00 0.43 0.43 93 1013.4
20260904002959 73 68 0.0 0.0 0.00 0.43 0.43 93 1013.3
20260904002459 73 68 0.0 0.0 0.00 0.43 0.43 93 1013.3
20260904002000 73 68 0.0 0.0 0.00 0.43 0.43 93 1013.4
20260904001500 73 68 0.0 0.0 0.00 0.43 0.43 93 1013.6
20260904000959 73 68 0.0 0.0 0.00 0.43 0.43 93 1013.2
20260904000459 73 68 0.0 0.0 0.00 0.43 0.43 93 1013.0
20260903235501 73 68 0.0 0.0 0.00 0.43 0.43 93 1012.9
20260903235000 73 68 0.0 0.0 0.00 0.43 0.43 93 1012.8
20260903234501 74 68 0.0 0.0 0.00 0.43 0.43 92 1012.7
20260903234000 74 68 0.0 0.0 0.00 0.43 0.43 92 1012.8
20260903233500 74 68 0.0 0.0 0.00 0.43 0.43 92 1012.8
20260903233001 74 68 0.0 0.0 0.00 0.43 0.43 92 1012.7
20260903232501 74 68 0.0 0.0 0.00 0.43 0.43 92 1012.7
20260903232000 74 68 0.0 0.0 0.00 0.43 0.43 92 1012.7
20260903231000 74 68 0.0 0.0 0.00 0.43 0.43 92 1012.8
20260903230500 75 68 0.0 0.0 0.00 0.43 0.43 92 1012.7
20260903225500 75 68 0.0 0.0 0.00 0.43 0.43 91 1012.6
20260903224959 75 68 0.0 0.0 0.00 0.43 0.43 91 1012.8
20260903224500 75 68 0.0 0.0 0.00 0.43 0.43 91 1012.8
20260903223959 75 68 0.0 0.0 0.00 0.43 0.43 91 1012.8
20260903223459 75 68 0.0 0.0 0.00 0.43 0.43 91 1012.9
20260903222959 75 68 0.0 0.0 0.00 0.43 0.43 91 1013.1
20260903222500 75 68 0.0 0.0 0.00 0.43 0.43 91 1013.2
20260903221959 75 68 0.0 0.0 0.00 0.43 0.43 91 1013.1
20260903221459 75 68 0.0 0.0 0.00 0.43 0.43 91 1013.1
20260903220959 75 68 0.0 0.0 0.00 0.43 0.43 91 1013.1
20260903220459 75 68 0.0 0.0 0.00 0.43 0.43 90 1013.1
20260903220003 75 68 0.0 0.0 0.00 0.43 0.43 91 1013.0
20260903215500 75 68 0.0 0.0 0.00 0.43 0.43 91 1013.0
20260903214500 76 68 0.0 0.0 0.00 0.43 0.43 90 1013.1
20260903214001 76 68 0.0 0.0 0.00 0.43 0.43 90 1013.0
20260903213501 76 68 0.0 0.0 0.00 0.43 0.43 90 1012.9
20260903213000 76 68 0.0 0.0 0.00 0.43 0.43 90 1012.8
20260903212500 76 68 0.0 0.0 0.00 0.43 0.43 90 1012.6
20260903212001 76 68 0.0 0.0 0.00 0.43 0.43 91 1012.6
20260903211000 76 68 0.0 0.0 0.00 0.43 0.43 90 1012.8
20260903210500 76 68 0.0 0.0 0.00 0.43 0.43 91 1012.8
20260903210002 76 68 0.0 0.0 0.00 0.43 0.43 90 1012.9
20260903205459 76 68 0.0 0.0 0.00 0.43 0.43 90 1013.0
20260903204959 76 68 0.0 0.0 0.00 0.43 0.43 89 1013.1
20260903203459 76 68 0.0 0.0 0.00 0.43 0.43 89 1013.0
20260903202959 77 68 0.0 0.0 0.00 0.43 0.43 89 1013.2
20260903202500 77 68 0.0 0.0 0.00 0.43 0.43 88 1013.0
20260903202000 77 68 0.0 1.0 0.00 0.43 0.43 88 1013.0
20260903201500 77 68 0.0 1.0 0.00 0.43 0.43 88 1013.0
20260903201000 77 68 0.0 2.0 0.00 0.43 0.43 86 1013.0
20260903200459 78 68 1.0 2.0 0.00 0.43 0.43 86 1013.0
20260903200002 78 68 1.0 1.0 0.00 0.43 0.43 87 1012.9
20260903195459 78 68 1.0 3.0 0.00 0.43 0.43 85 1013.1
20260903195000 78 68 0.0 3.0 0.00 0.43 0.43 84 1013.1
20260903194500 78 68 1.0 4.0 0.00 0.43 0.43 85 1013.1
20260903193959 77 55 2.0 5.0 0.00 0.43 0.43 85 1013.2
20260903193500 77 69 0.0 2.0 0.00 0.43 0.43 85 1013.2
20260903193003 77 69 0.0 0.0 0.00 0.43 0.43 87 1013.2
20260903192459 77 69 0.0 3.0 0.00 0.43 0.43 87 1013.2
20260903190500 77 92 0.0 3.0 0.00 0.43 0.43 86 1013.4
20260903190001 78 92 0.0 3.0 0.00 0.43 0.43 86 1013.5
20260903185459 78 115 0.0 3.0 0.00 0.43 0.43 87 1013.5
20260903184459 77 260 0.0 0.0 0.00 0.43 0.43 88 1013.6
20260903183459 76 260 0.0 1.0 0.00 0.43 0.43 88 1013.7
20260903182459 76 260 1.0 2.0 0.00 0.43 0.43 89 1013.8
20260903181959 76 260 0.0 3.0 0.00 0.43 0.43 89 1013.8
20260903180959 75 260 0.0 3.0 0.00 0.43 0.43 90 1013.8
20260903180459 75 260 1.0 3.0 0.00 0.43 0.43 90 1013.8
20260903180002 75 257 2.0 3.0 0.00 0.43 0.43 90 1013.8
20260903175501 75 257 2.0 4.0 0.00 0.43 0.43 90 1013.8
20260903174959 76 255 2.0 4.0 0.00 0.43 0.43 89 1013.9
20260903174459 76 212 0.0 3.0 0.00 0.43 0.43 90 1013.8
20260903174000 75 74 0.0 3.0 0.00 0.43 0.43 91 1013.8
20260903173459 74 242 0.0 2.0 0.00 0.43 0.43 92 1013.9
20260903172959 74 242 0.0 2.0 0.00 0.43 0.43 91 1013.9
20260903172459 74 271 1.0 2.0 0.00 0.43 0.43 91 1014.0
20260903171959 74 271 2.0 3.0 0.00 0.43 0.43 91 1013.9
20260903171459 74 271 1.0 4.0 0.00 0.43 0.43 90 1013.9
20260903170500 74 257 2.0 4.0 0.00 0.43 0.43 91 1014.1
20260903165458 74 200 0.0 2.0 0.00 0.43 0.43 93 1014.0
20260903164958 73 204 0.0 3.0 0.00 0.43 0.43 93 1014.1
20260903164459 73 199 0.0 3.0 0.00 0.43 0.43 92 1014.0
20260903163958 72 244 1.0 3.0 0.00 0.43 0.43 92 1014.0
20260903163458 72 205 0.0 0.0 0.00 0.43 0.43 92 1014.0
20260903162959 73 198 0.0 2.0 0.00 0.43 0.43 92 1014.2
20260903162457 72 252 0.0 4.0 0.00 0.43 0.43 92 1014.3
20260903161958 72 252 2.0 6.0 0.00 0.43 0.43 92 1014.3
20260903161458 73 257 3.0 6.0 0.00 0.43 0.43 93 1014.4
20260903160958 73 268 3.0 4.0 0.00 0.43 0.43 94 1014.5
20260903160457 72 257 4.0 4.0 0.00 0.43 0.43 94 1014.5
20260903160001 71 262 2.0 4.0 0.00 0.43 0.43 94 1014.5
20260903155458 71 227 3.0 3.0 0.00 0.43 0.43 94 1014.5
20260903154959 71 254 2.0 4.0 0.00 0.43 0.43 94 1014.4
20260903154500 71 254 2.0 4.0 0.00 0.43 0.43 94 1014.5
20260903154000 71 254 2.0 4.0 0.00 0.43 0.43 94 1014.6
20260903153459 71 254 1.0 4.0 0.00 0.43 0.43 94 1014.7
20260903152959 71 254 4.0 4.0 0.00 0.43 0.43 95 1014.7
20260903152459 70 254 2.0 4.0 0.00 0.43 0.43 95 1014.8
20260903152002 70 254 3.0 5.0 0.00 0.43 0.43 95 1014.8
20260903151459 70 252 3.0 5.0 0.00 0.43 0.43 95 1014.8
20260903150959 70 239 2.0 4.0 0.00 0.43 0.43 95 1014.9
20260903150459 70 250 3.0 3.0 0.00 0.43 0.43 95 1014.9
20260903145459 70 246 1.0 5.0 0.00 0.43 0.43 95 1014.8
20260903144959 70 257 2.0 6.0 0.00 0.43 0.43 96 1014.7
20260903144459 70 257 1.0 4.0 0.00 0.43 0.43 96 1014.8
20260903143500 70 234 2.0 3.0 0.00 0.43 0.43 96 1014.7
20260903142958 70 261 1.0 4.0 0.00 0.43 0.43 96 1014.7
20260903142500 69 261 2.0 4.0 0.00 0.43 0.43 96 1014.8